BAW2158 SYCJ-TLPL

Flight info

Callsign BAW2158
Flight time 1h 15m
Altitude 38000
Route KOTEN UA632 BGI R750 BNE
Aircraft B772/H-SDE2E3FGHIJ5LORVWXY/LB1D1

Departure

Time 2026-05-04 23:41
Airport Cheddi Jagan International Airport (SYCJ)

Arrival

Time 2026-05-05 00:56
Airport Hewanorra International Airport (TLPL)
Time Latitude Longitude Altitude Speed Heading
2026-05-04 22:58 6.50218 -58.25456 110 ft 0 kts 314°
2026-05-04 23:30 6.50205 -58.25443 108 ft 4 kts 314°
2026-05-04 23:30 6.50186 -58.25423 108 ft 4 kts 314°
2026-05-04 23:30 6.50167 -58.25404 106 ft 4 kts 314°
2026-05-04 23:30 6.50152 -58.25387 106 ft 4 kts 295°
2026-05-04 23:31 6.50147 -58.25369 107 ft 4 kts 247°
2026-05-04 23:31 6.50161 -58.25350 107 ft 4 kts 223°
2026-05-04 23:31 6.50171 -58.25341 105 ft 0 kts 224°
2026-05-04 23:34 6.50170 -58.25342 105 ft 1 kts 224°
2026-05-04 23:34 6.50150 -58.25359 106 ft 4 kts 214°
2026-05-04 23:35 6.50120 -58.25351 108 ft 5 kts 143°
2026-05-04 23:35 6.50087 -58.25348 110 ft 5 kts 200°
2026-05-04 23:35 6.50059 -58.25371 110 ft 6 kts 224°
2026-05-04 23:35 6.50008 -58.25421 110 ft 15 kts 225°
2026-05-04 23:36 6.49936 -58.25494 110 ft 15 kts 225°
2026-05-04 23:36 6.49863 -58.25566 109 ft 15 kts 225°
2026-05-04 23:36 6.49792 -58.25637 110 ft 15 kts 225°
2026-05-04 23:36 6.49719 -58.25709 110 ft 15 kts 224°
2026-05-04 23:37 6.49646 -58.25781 110 ft 15 kts 224°
2026-05-04 23:37 6.49574 -58.25853 110 ft 15 kts 225°
2026-05-04 23:37 6.49502 -58.25926 109 ft 15 kts 225°
2026-05-04 23:37 6.49430 -58.26000 109 ft 15 kts 225°
2026-05-04 23:38 6.49359 -58.26072 109 ft 15 kts 225°
2026-05-04 23:38 6.49283 -58.26123 109 ft 11 kts 184°
2026-05-04 23:38 6.49223 -58.26086 109 ft 8 kts 144°
2026-05-04 23:38 6.49171 -58.26102 109 ft 9 kts 223°
2026-05-04 23:39 6.49101 -58.26173 110 ft 20 kts 225°
2026-05-04 23:39 6.48996 -58.26279 110 ft 21 kts 224°
2026-05-04 23:39 6.48890 -58.26383 109 ft 21 kts 224°
2026-05-04 23:39 6.48816 -58.26449 110 ft 10 kts 202°
2026-05-04 23:40 6.48765 -58.26459 109 ft 5 kts 214°
2026-05-04 23:40 6.48762 -58.26491 109 ft 2 kts 302°
2026-05-04 23:40 6.48778 -58.26490 110 ft 3 kts 26°
2026-05-04 23:40 6.48793 -58.26477 110 ft 6 kts 40°
2026-05-04 23:41 6.48957 -58.26313 109 ft 74 kts 45°
2026-05-04 23:41 6.49542 -58.25728 113 ft 159 kts 45°
2026-05-04 23:41 6.50392 -58.24876 850 ft 168 kts 45°
2026-05-04 23:41 6.51176 -58.24085 2061 ft 163 kts 47°
2026-05-04 23:42 6.52030 -58.23203 2582 ft 193 kts 47°
2026-05-04 23:42 6.53056 -58.22136 2825 ft 230 kts 47°
2026-05-04 23:42 6.54252 -58.20991 3316 ft 247 kts 36°
2026-05-04 23:42 6.55921 -58.20420 4130 ft 260 kts
2026-05-04 23:43 6.57743 -58.20590 4954 ft 268 kts 352°
2026-05-04 23:43 6.59606 -58.20969 5769 ft 276 kts 351°
2026-05-04 23:43 6.61494 -58.21379 6658 ft 279 kts 351°
2026-05-04 23:43 6.63401 -58.21798 7468 ft 282 kts 350°
2026-05-04 23:44 6.65325 -58.22220 8257 ft 287 kts 350°
2026-05-04 23:44 6.67299 -58.22650 9057 ft 292 kts 350°
2026-05-04 23:44 6.69303 -58.23083 9812 ft 296 kts 350°
2026-05-04 23:44 6.71345 -58.23522 10365 ft 308 kts 351°
2026-05-04 23:45 6.73505 -58.23981 10535 ft 333 kts 351°
2026-05-04 23:45 6.75822 -58.24471 11048 ft 346 kts 351°
2026-05-04 23:45 6.78222 -58.24981 11779 ft 355 kts 351°
2026-05-04 23:45 6.80668 -58.25501 12753 ft 359 kts 352°
2026-05-04 23:46 6.83099 -58.26018 13712 ft 364 kts 352°
2026-05-04 23:46 6.85602 -58.26548 14543 ft 370 kts 352°
2026-05-04 23:46 6.88133 -58.27084 15442 ft 373 kts 352°
2026-05-04 23:46 6.90688 -58.27625 16368 ft 376 kts 352°
2026-05-04 23:47 6.93265 -58.28171 17258 ft 381 kts 351°
2026-05-04 23:47 6.95881 -58.28724 18144 ft 385 kts 351°
2026-05-04 23:47 6.98519 -58.29282 18874 ft 389 kts 351°
2026-05-04 23:47 7.01188 -58.29847 19597 ft 394 kts 350°
2026-05-04 23:48 7.03852 -58.30410 20298 ft 397 kts 350°
2026-05-04 23:48 7.06580 -58.30979 21012 ft 401 kts 349°
2026-05-04 23:48 7.09320 -58.31559 21694 ft 405 kts 348°
2026-05-04 23:48 7.12096 -58.32150 22334 ft 410 kts 348°
2026-05-04 23:49 7.14903 -58.32747 22988 ft 414 kts 347°
2026-05-04 23:49 7.17740 -58.33351 23617 ft 417 kts 347°
2026-05-04 23:49 7.20562 -58.33950 24127 ft 421 kts 346°
2026-05-04 23:49 7.23437 -58.34560 24663 ft 424 kts 346°
2026-05-04 23:50 7.26344 -58.35176 25202 ft 426 kts 346°
2026-05-04 23:50 7.29260 -58.35794 25783 ft 429 kts 346°
2026-05-04 23:50 7.32182 -58.36413 26364 ft 431 kts 346°
2026-05-04 23:50 7.35134 -58.37039 26934 ft 434 kts 346°
2026-05-04 23:51 7.38067 -58.37660 27475 ft 437 kts 346°
2026-05-04 23:51 7.41054 -58.38293 28034 ft 440 kts 346°
2026-05-04 23:51 7.44073 -58.38933 28606 ft 442 kts 346°
2026-05-04 23:51 7.47097 -58.39574 29153 ft 445 kts 346°
2026-05-04 23:52 7.50147 -58.40221 29704 ft 448 kts 346°
2026-05-04 23:52 7.53214 -58.40871 30228 ft 451 kts 346°
2026-05-04 23:52 7.56257 -58.41516 30670 ft 454 kts 346°
2026-05-04 23:52 7.59373 -58.42177 31082 ft 458 kts 346°
2026-05-04 23:53 7.62516 -58.42844 31469 ft 463 kts 346°
2026-05-04 23:53 7.65658 -58.43511 31835 ft 467 kts 346°
2026-05-04 23:53 7.68857 -58.44190 32237 ft 470 kts 345°
2026-05-04 23:53 7.72072 -58.44872 32637 ft 473 kts 345°
2026-05-04 23:54 7.75311 -58.45559 33050 ft 476 kts 345°
2026-05-04 23:54 7.78557 -58.46248 33472 ft 477 kts 345°
2026-05-04 23:54 7.81769 -58.46929 33966 ft 477 kts 345°
2026-05-04 23:54 7.85020 -58.47619 34460 ft 475 kts 345°
2026-05-04 23:55 7.88258 -58.48305 34957 ft 474 kts 345°
2026-05-04 23:55 7.91486 -58.48990 35449 ft 472 kts 345°
2026-05-04 23:55 7.97920 -58.50357 36368 ft 471 kts 345°
2026-05-04 23:56 8.01122 -58.51038 36840 ft 470 kts 345°
2026-05-04 23:56 8.04283 -58.51710 37318 ft 469 kts 345°
2026-05-04 23:56 8.07468 -58.52387 37775 ft 468 kts 345°
2026-05-04 23:56 8.10667 -58.53067 38015 ft 471 kts 345°
2026-05-04 23:57 8.13891 -58.53754 37989 ft 474 kts 345°
2026-05-04 23:57 8.20294 -58.55114 37983 ft 465 kts 345°
2026-05-04 23:58 8.26617 -58.56459 37997 ft 466 kts 345°
2026-05-04 23:58 8.32966 -58.57812 37995 ft 467 kts 345°
2026-05-04 23:59 8.39305 -58.59162 37993 ft 467 kts 345°
2026-05-04 23:59 8.45690 -58.60521 37993 ft 467 kts 345°
2026-05-05 00:00 8.52031 -58.61872 37991 ft 467 kts 345°
2026-05-05 00:00 8.58397 -58.63229 37986 ft 466 kts 345°
2026-05-05 00:01 8.64735 -58.64580 37996 ft 465 kts 345°
2026-05-05 00:01 8.71034 -58.65924 37999 ft 465 kts 345°
2026-05-05 00:02 8.77379 -58.67278 37997 ft 465 kts 345°
2026-05-05 00:02 8.83723 -58.68632 37993 ft 465 kts 345°
2026-05-05 00:03 8.90016 -58.69976 37996 ft 465 kts 345°
2026-05-05 00:03 8.96393 -58.71271 37994 ft 465 kts 346°
2026-05-05 00:04 9.02744 -58.72429 37999 ft 465 kts 347°
2026-05-05 00:04 9.09123 -58.73583 37997 ft 465 kts 346°
2026-05-05 00:05 9.15460 -58.74779 38002 ft 463 kts 343°
2026-05-05 00:05 9.21476 -58.76932 38007 ft 458 kts 332°
2026-05-05 00:06 9.27082 -58.79997 38000 ft 457 kts 328°
2026-05-05 00:06 9.32642 -58.83140 37999 ft 457 kts 328°
2026-05-05 00:07 9.37274 -58.85743 38002 ft 458 kts 328°
2026-05-05 00:07 9.43761 -58.89368 38000 ft 458 kts 328°
2026-05-05 00:08 9.49343 -58.92481 38003 ft 458 kts 328°
2026-05-05 00:08 9.53993 -58.95073 38002 ft 458 kts 328°
2026-05-05 00:09 9.59584 -58.98192 38003 ft 458 kts 328°
2026-05-05 00:09 9.65169 -59.01310 38002 ft 458 kts 329°
2026-05-05 00:10 9.70717 -59.04408 38001 ft 458 kts 329°
2026-05-05 00:10 9.76302 -59.07529 38005 ft 458 kts 329°
2026-05-05 00:11 9.81859 -59.10634 38005 ft 458 kts 329°
2026-05-05 00:11 9.87444 -59.13757 38006 ft 458 kts 329°
2026-05-05 00:12 9.93021 -59.16876 38010 ft 458 kts 329°
2026-05-05 00:12 9.98600 -59.19998 38008 ft 457 kts 329°
2026-05-05 00:13 10.04148 -59.23104 38012 ft 457 kts 329°
2026-05-05 00:13 10.09704 -59.26215 38016 ft 457 kts 329°
2026-05-05 00:14 10.15274 -59.29335 38010 ft 457 kts 329°
2026-05-05 00:14 10.20860 -59.32466 38010 ft 457 kts 329°
2026-05-05 00:15 10.26411 -59.35578 38013 ft 457 kts 329°
2026-05-05 00:15 10.31989 -59.38707 38011 ft 457 kts 329°
2026-05-05 00:16 10.37524 -59.41812 38014 ft 457 kts 329°
2026-05-05 00:16 10.43091 -59.44937 38014 ft 457 kts 329°
2026-05-05 00:17 10.48667 -59.48069 38014 ft 457 kts 329°
2026-05-05 00:17 10.54242 -59.51201 38017 ft 457 kts 329°
2026-05-05 00:18 10.59787 -59.54318 38018 ft 457 kts 329°
2026-05-05 00:18 10.65343 -59.57441 38016 ft 457 kts 329°
2026-05-05 00:19 10.70908 -59.60572 38018 ft 457 kts 329°
2026-05-05 00:19 10.76489 -59.63713 38014 ft 457 kts 329°
2026-05-05 00:20 10.82059 -59.66848 38020 ft 457 kts 329°
2026-05-05 00:20 10.87600 -59.69969 38023 ft 457 kts 329°
2026-05-05 00:21 10.93178 -59.73113 38021 ft 457 kts 329°
2026-05-05 00:21 10.98744 -59.76250 38021 ft 458 kts 329°
2026-05-05 00:22 11.04288 -59.79377 38020 ft 458 kts 329°
2026-05-05 00:22 11.09867 -59.82525 38023 ft 458 kts 329°
2026-05-05 00:23 11.15446 -59.85673 38025 ft 459 kts 329°
2026-05-05 00:23 11.21028 -59.88826 38027 ft 459 kts 329°
2026-05-05 00:24 11.26607 -59.91977 38022 ft 458 kts 329°
2026-05-05 00:24 11.32193 -59.95135 38026 ft 459 kts 329°
2026-05-05 00:25 11.37776 -59.98292 38027 ft 458 kts 329°
2026-05-05 00:25 11.43328 -60.01433 38027 ft 459 kts 329°
2026-05-05 00:26 11.48914 -60.04595 38025 ft 459 kts 329°
2026-05-05 00:26 11.54479 -60.07746 38023 ft 459 kts 329°
2026-05-05 00:27 11.60092 -60.10926 38020 ft 459 kts 330°
2026-05-05 00:27 11.65644 -60.14072 38020 ft 459 kts 330°
2026-05-05 00:28 11.71245 -60.17248 38022 ft 459 kts 330°
2026-05-05 00:28 11.76798 -60.20398 38018 ft 459 kts 330°
2026-05-05 00:29 11.82392 -60.23573 38022 ft 460 kts 330°
2026-05-05 00:29 11.87990 -60.26751 38021 ft 460 kts 330°
2026-05-05 00:30 11.93596 -60.29937 37680 ft 462 kts 330°
2026-05-05 00:30 11.96399 -60.31530 37334 ft 460 kts 330°
2026-05-05 00:30 11.99196 -60.33120 36573 ft 460 kts 330°
2026-05-05 00:30 12.01949 -60.34685 36023 ft 456 kts 330°
2026-05-05 00:31 12.04713 -60.36256 35475 ft 452 kts 330°
2026-05-05 00:31 12.07454 -60.37815 34909 ft 449 kts 330°
2026-05-05 00:31 12.10172 -60.39361 34357 ft 445 kts 330°
2026-05-05 00:31 12.12885 -60.40905 33785 ft 442 kts 330°
2026-05-05 00:32 12.15532 -60.42412 33227 ft 438 kts 331°
2026-05-05 00:32 12.18192 -60.43927 32683 ft 433 kts 331°
2026-05-05 00:32 12.20817 -60.45423 32170 ft 429 kts 331°
2026-05-05 00:32 12.23385 -60.46886 31664 ft 424 kts 331°
2026-05-05 00:33 12.25964 -60.48356 31170 ft 420 kts 332°
2026-05-05 00:33 12.28505 -60.49804 30653 ft 416 kts 332°
2026-05-05 00:33 12.31035 -60.51246 30159 ft 413 kts 332°
2026-05-05 00:33 12.33516 -60.52661 29579 ft 410 kts 332°
2026-05-05 00:34 12.35994 -60.54074 29007 ft 406 kts 332°
2026-05-05 00:34 12.38463 -60.55481 28470 ft 403 kts 332°
2026-05-05 00:34 12.40874 -60.56856 27948 ft 399 kts 332°
2026-05-05 00:34 12.43298 -60.58240 27439 ft 396 kts 332°
2026-05-05 00:35 12.45702 -60.59612 26940 ft 394 kts 332°
2026-05-05 00:35 12.48088 -60.60974 26453 ft 391 kts 332°
2026-05-05 00:35 12.50460 -60.62329 25970 ft 389 kts 332°
2026-05-05 00:35 12.52822 -60.63678 25489 ft 387 kts 332°
2026-05-05 00:36 12.55170 -60.65019 25009 ft 386 kts 332°
2026-05-05 00:36 12.57507 -60.66354 24540 ft 385 kts 332°
2026-05-05 00:36 12.59809 -60.67669 24080 ft 384 kts 332°
2026-05-05 00:36 12.62138 -60.69000 23611 ft 383 kts 332°
2026-05-05 00:37 12.64466 -60.70332 23078 ft 381 kts 333°
2026-05-05 00:37 12.66777 -60.71653 22603 ft 379 kts 332°
2026-05-05 00:37 12.69070 -60.72964 22148 ft 376 kts 332°
2026-05-05 00:37 12.71341 -60.74265 21705 ft 373 kts 333°
2026-05-05 00:38 12.73597 -60.75556 21257 ft 370 kts 333°
2026-05-05 00:38 12.75837 -60.76838 20833 ft 367 kts 333°
2026-05-05 00:38 12.78060 -60.78111 20413 ft 364 kts 333°
2026-05-05 00:38 12.80246 -60.79361 19989 ft 362 kts 333°
2026-05-05 00:39 12.82443 -60.80619 19561 ft 360 kts 333°
2026-05-05 00:39 12.84627 -60.81871 19125 ft 358 kts 333°
2026-05-05 00:39 12.86803 -60.83117 18685 ft 357 kts 333°
2026-05-05 00:39 12.88943 -60.84343 18244 ft 356 kts 333°
2026-05-05 00:40 12.91099 -60.85579 17777 ft 354 kts 333°
2026-05-05 00:40 12.93240 -60.86807 17307 ft 351 kts 333°
2026-05-05 00:40 12.95370 -60.88028 16885 ft 349 kts 333°
2026-05-05 00:40 12.97484 -60.89241 16461 ft 347 kts 333°
2026-05-05 00:41 12.99583 -60.90445 16026 ft 345 kts 333°
2026-05-05 00:41 13.01669 -60.91641 15604 ft 343 kts 333°
2026-05-05 00:41 13.03753 -60.92837 15179 ft 342 kts 333°
2026-05-05 00:41 13.05823 -60.94025 14758 ft 341 kts 333°
2026-05-05 00:42 13.07864 -60.95196 14316 ft 340 kts 333°
2026-05-05 00:42 13.09932 -60.96383 13896 ft 339 kts 333°
2026-05-05 00:42 13.11999 -60.97570 13425 ft 339 kts 333°
2026-05-05 00:42 13.14031 -60.98737 12988 ft 337 kts 333°
2026-05-05 00:43 13.16078 -60.99913 12559 ft 335 kts 333°
2026-05-05 00:43 13.18108 -61.01080 12142 ft 333 kts 333°
2026-05-05 00:43 13.20123 -61.02238 11729 ft 330 kts 333°
2026-05-05 00:43 13.22128 -61.03390 11318 ft 328 kts 333°
2026-05-05 00:44 13.24090 -61.04519 10918 ft 326 kts 333°
2026-05-05 00:44 13.26072 -61.05658 10516 ft 325 kts 333°
2026-05-05 00:44 13.28031 -61.06786 10315 ft 316 kts 333°
2026-05-05 00:44 13.29899 -61.07862 10174 ft 306 kts 333°
2026-05-05 00:45 13.31734 -61.08918 10014 ft 298 kts 333°
2026-05-05 00:45 13.33537 -61.09955 9698 ft 296 kts 333°
2026-05-05 00:45 13.35331 -61.10986 9378 ft 294 kts 333°
2026-05-05 00:45 13.37116 -61.12013 9061 ft 292 kts 333°
2026-05-05 00:46 13.38898 -61.12951 8722 ft 289 kts 340°
2026-05-05 00:46 13.40780 -61.13640 8410 ft 287 kts 345°
2026-05-05 00:46 13.42690 -61.14259 8110 ft 287 kts 345°
2026-05-05 00:46 13.44594 -61.14880 7794 ft 287 kts 345°
2026-05-05 00:47 13.46373 -61.15476 7502 ft 288 kts 344°
2026-05-05 00:47 13.48249 -61.16117 7210 ft 288 kts 344°
2026-05-05 00:47 13.50148 -61.16776 6899 ft 288 kts 343°
2026-05-05 00:48 13.52049 -61.17439 6602 ft 288 kts 343°
2026-05-05 00:48 13.53951 -61.18103 6269 ft 288 kts 343°
2026-05-05 00:48 13.55847 -61.18766 5964 ft 287 kts 343°
2026-05-05 00:48 13.57732 -61.19425 5652 ft 285 kts 344°
2026-05-05 00:49 13.59590 -61.20075 5351 ft 284 kts 344°
2026-05-05 00:49 13.61458 -61.20728 5052 ft 282 kts 344°
2026-05-05 00:49 13.63321 -61.21341 4735 ft 275 kts 351°
2026-05-05 00:49 13.65203 -61.21501 4448 ft 269 kts
2026-05-05 00:50 13.67045 -61.21467 4169 ft 267 kts
2026-05-05 00:50 13.68909 -61.21430 3869 ft 267 kts
2026-05-05 00:50 13.70712 -61.21235 3581 ft 254 kts 23°
2026-05-05 00:50 13.72134 -61.20295 3470 ft 237 kts 51°
2026-05-05 00:51 13.72988 -61.18928 3376 ft 225 kts 68°
2026-05-05 00:51 13.73366 -61.17426 3261 ft 210 kts 87°
2026-05-05 00:51 13.73392 -61.15949 3167 ft 201 kts 91°
2026-05-05 00:51 13.73383 -61.14545 3080 ft 191 kts 91°
2026-05-05 00:52 13.73366 -61.13216 3016 ft 179 kts 90°
2026-05-05 00:52 13.73353 -61.11955 2824 ft 173 kts 90°
2026-05-05 00:52 13.73347 -61.10741 2653 ft 167 kts 91°
2026-05-05 00:52 13.73343 -61.09570 2436 ft 164 kts 90°
2026-05-05 00:53 13.73340 -61.08406 2231 ft 157 kts 89°
2026-05-05 00:53 13.73339 -61.07347 2056 ft 142 kts 89°
2026-05-05 00:53 13.73339 -61.06349 1867 ft 139 kts 90°
2026-05-05 00:53 13.73338 -61.05361 1665 ft 137 kts 89°
2026-05-05 00:54 13.73338 -61.04382 1501 ft 139 kts 89°
2026-05-05 00:54 13.73339 -61.03396 1320 ft 138 kts 90°
2026-05-05 00:54 13.73339 -61.02433 1161 ft 132 kts 92°
2026-05-05 00:54 13.73337 -61.01513 996 ft 128 kts 90°
2026-05-05 00:55 13.73342 -61.00589 826 ft 128 kts 90°
2026-05-05 00:55 13.73341 -60.99678 687 ft 131 kts 91°
2026-05-05 00:55 13.73341 -60.98755 508 ft 128 kts 91°
2026-05-05 00:55 13.73337 -60.97860 378 ft 125 kts 90°
2026-05-05 00:56 13.73338 -60.96922 183 ft 130 kts 91°
2026-05-05 00:56 13.73343 -60.95997 30 ft 122 kts 90°
2026-05-05 00:56 13.73343 -60.95251 28 ft 83 kts 90°
2026-05-05 00:56 13.73345 -60.94814 27 ft 38 kts 90°
2026-05-05 00:57 13.73345 -60.94639 26 ft 19 kts 90°
2026-05-05 00:57 13.73356 -60.94558 25 ft 8 kts 42°
2026-05-05 00:57 13.73408 -60.94560 28 ft 8 kts 340°
2026-05-05 00:57 13.73457 -60.94580 32 ft 8 kts 336°
2026-05-05 00:58 13.73500 -60.94613 34 ft 8 kts 318°
2026-05-05 00:58 13.73539 -60.94650 35 ft 8 kts 312°
2026-05-05 00:58 13.73569 -60.94695 36 ft 8 kts 284°
2026-05-05 00:58 13.73572 -60.94751 36 ft 8 kts 270°
2026-05-05 00:59 13.73572 -60.94808 36 ft 8 kts 270°
2026-05-05 00:59 13.73572 -60.94831 36 ft 1 kts 270°
2026-05-05 00:59 13.73577 -60.94841 36 ft 2 kts 302°
2026-05-05 00:59 13.73588 -60.94848 35 ft 2 kts 330°
2026-05-05 01:00 13.73600 -60.94852 36 ft 2 kts 346°
2026-05-05 01:00 13.73615 -60.94854 36 ft 2 kts 353°
2026-05-05 01:00 13.73633 -60.94855 36 ft 3 kts 358°
2026-05-05 01:00 13.73640 -60.94855 36 ft 0 kts 359°